User: anonymous   Login
Location: Unspecified
(0.0000°N, 0.0000°E)
Time: 23:48:31
(UTC+02:00)
Language:

Delta 168 - Orbit

View from above orbital plane
View from above orbital plane
View from above satellite
View from above satellite

Ground track
Ground track

The orbit data is extracted from the following two-line orbital elements,

1 14051U 83041B   15209.14834861  .00003504  00000-0  32796-3 0  9991
2 14051 025.3342 183.2887 1110634 341.3402 095.3066 13.05326232488075
Epoch (UTC): 28 July 2015 03:33:37
Eccentricity: 0.1110634
inclination: 25.3342°
perigee height: 395 km
apogee height: 2087 km
right ascension of ascending node: 183.2887°
argument of perigee: 341.3402°
revolutions per day: 13.05326232
mean anomaly at epoch: 95.3066°
orbit number at epoch: 48807

The dashed part of the orbit path shows where the satellite is in the earth's shadow,  

DLR